Location: Arezzo
(43.4170°N, 11.8830°E)
Time: 02:20:08
(UTC+02:00)

STARLINK-2717 - Visible Passes

Search period start: 24 October 2021 00:00
Search period end: 02 November 2021 23:00
Orbit: 546 x 548 km, 53.1° (Epoch: 23 October)

Date Brightness Start Highest point End Pass type
(mag) Time Alt. Az. Time Alt. Az. Time Alt. Az.
26 Oct 6.5 05:41:55 10° SSE 05:43:49 13° SE 05:45:44 10° E visible
27 Oct 6.2 05:34:35 10° S 05:37:21 17° SE 05:40:07 10° E visible
28 Oct 5.7 05:29:06 17° SSE 05:30:53 23° SE 05:34:11 10° ENE visible
28 Oct 3.7 07:06:02 10° WSW 07:10:07 62° NNW 07:14:13 10° NE visible
29 Oct 5.1 05:23:51 29° SSE 05:24:26 30° SE 05:28:05 10° ENE visible
29 Oct 3.9 06:59:48 10° WSW 07:03:49 50° NNW 07:07:51 10° NE visible
30 Oct 4.8 05:18:25 39° ESE 05:18:25 39° ESE 05:21:53 10° ENE visible
30 Oct 4.2 06:54:03 13° W 06:57:32 41° NNW 07:01:28 10° NE visible
31 Oct 5.0 04:12:49 38° E 04:12:49 38° E 04:15:36 10° ENE visible
31 Oct 4.4 05:48:26 16° W 05:51:14 35° NNW 05:55:04 10° NE visible
01 Nov 5.4 04:07:05 30° ENE 04:07:05 30° ENE 04:09:17 10° ENE visible
01 Nov 4.7 05:42:42 18° WNW 05:44:58 30° NNW 05:48:40 10° NE visible
02 Nov 5.8 04:01:15 23° NE 04:01:15 23° NE 04:02:54 10° NE visible
02 Nov 4.8 05:36:51 20° WNW 05:38:41 27° NNW 05:42:16 10° NE visible
